Weather in Shigoni

Russia / Samara Oblast     53°23′22″N   48°40′47″E
temp.,
°C
wind,
m/s
gust,
m/s
humid.,
%
clouds,
%
prec.,
mm/h
press.,
hPa
HPBL,
m
9 december, thu
thu901:00−1sse5139559 0.0 1026410
04:00−2sse51393100 0.0 1025422
07:00−2se51290100 0.0 1024421
10:00−2se61285100 0.0 1024418
13:00−1sse61077100 0.0 1023484
16:00−1sse3781100 0.0 1023393
19:00−2se2587100 0.0 1023211
22:00−2sse1297100 0.6 1023110
10 december, fri
fri1001:00−2n2296100 0.4 102346
04:00−1ne3697100 0.5 1023262
07:00−1nne599490 0.0 1024445
10:00−1nne61192100 0.1 1026505
13:00−1nne71189100 0.1 1026615
16:00−3nne81288100 0.1 1027603
19:00−4nne81289100 0.1 1029545
22:00−5nne8138498 0.1 1030544
11 december, sat
sat1101:00−6nne8148157 0.0 1031455
04:00−7nne814745 0.0 1032451
07:00−7nne814721 0.0 1033441
10:00−7nne815690 0.0 1034450
13:00−6ne815610 0.0 1035473
16:00−6ne815640 0.0 1036481
19:00−7ne714700 0.0 1037431
22:00−7ne613720 0.0 1038380
12 december, sun
sun1201:00−8ne510764 0.0 1040308
04:00−8ne48765 0.0 1041224
07:00−8ne36775 0.0 1042144
10:00−7ene25745 0.0 1043154
13:00−5ene23654 0.0 1043206
16:00−5ene11714 0.0 104325
19:00−6e117236 0.0 104410
22:00−6sse22710 0.0 104419
13 december, mon
mon1301:00−6sse22710 0.0 104428
04:00−7sse22691 0.0 104426
07:00−7sse22685 0.0 104428
10:00−7s23655 0.0 104492
13:00−5s35555 0.0 1043201
16:00−5sse24625 0.0 1042117
19:00−6sse23635 0.0 104247
22:00−6s236567 0.0 104161